Weather History for Geneva, Switzerland

Change the Weather History Date:

Monday, April 22, 2013

  Actual Average Record
Temperature  
Mean Temperature 52 °F -  
Max Temperature 57 °F 62 °F 77 °F (2007)
Min Temperature 46 °F 43 °F 32 °F (1997)
Degree Days  
Heating Degree Days 14    
Growing Degree Days 2 (Base 50)    
Moisture  
Dew Point 42 °F    
Average Humidity 72    
Maximum Humidity 100    
Minimum Humidity 39    
Precipitation  
Precipitation 0.00 in 0.09 in - ()
Sea Level Pressure  
Sea Level Pressure 30.04 in    
Wind  
Wind Speed 3 mph ()    
Max Wind Speed 13 mph    
Max Gust Speed -    
Visibility 6.9 miles    
Events Rain    
Averages and records for this station are not official NWS values.
T = Trace of Precipitation, MM = Missing Value Source: Averaged Metar Reports

Daily Weather History Graph

Daily Weather History Graph

Search for Another Location

Airport:

Trip Planner

Search our weather history database for the weather conditions in past years. The results will help you decide how hot, cold, wet, or windy it might be!

Date:

Astronomy

Apr. 22, 2013 Rise Set
Actual Time 6:36 AM CEST 8:32 PM CEST
Civil Twilight 6:04 AM CEST 9:04 PM CEST
Nautical Twilight 5:24 AM CEST 9:44 PM CEST
Astronomical Twilight 4:41 AM CEST 10:27 PM CEST
Moon 4:53 PM CEST (4/22) 4:35 AM CEST (4/22)
Length of Visible Light 15h 00m
Length of Day
13h 55m
Waxing Gibbous, 86% of the Moon is Illuminated
Apr 22
Waxing Gibbous
Apr 25
Full
May 2
Last Quarter
May 10
New
May 18
First Quarter

Hourly Weather History & Observations

Time (CEST) Temp. Dew Point Humidity Pressure Visibility Wind Dir Wind Speed Gust Speed Precip Events Conditions
12:00 AM 48 °F 43 °F 77% 30.09 in - West 2.3 mph - -  
12:20 AM 48.2 °F 44.6 °F 87% 30.06 in 6.2 mi Variable 1.2 mph - N/A   Mostly Cloudy
12:50 AM 48.2 °F 44.6 °F 87% 30.06 in 6.2 mi Variable 1.2 mph - N/A   Mostly Cloudy
1:00 AM 48 °F 43 °F 78% 30.08 in - WSW 2.3 mph - -  
1:20 AM 48.2 °F 44.6 °F 87% 30.04 in 6.2 mi West 2.3 mph - N/A Rain Light Rain
1:50 AM 48.2 °F 44.6 °F 87% 30.04 in 6.2 mi Variable 2.3 mph - N/A Rain Light Rain
2:00 AM 48 °F 44 °F 83% 30.07 in 11 mi SW 2.3 mph - - Rain Light Rain
2:20 AM 48.2 °F 44.6 °F 87% 30.04 in 6.2 mi West 3.5 mph - N/A   Mostly Cloudy
2:50 AM 46.4 °F 44.6 °F 93% 30.04 in 6.2 mi Variable 1.2 mph - N/A   Mostly Cloudy
3:00 AM 47 °F 45 °F 90% 30.06 in - West 2.3 mph - -  
3:50 AM 46.4 °F 46.4 °F 100% 30.04 in 6.2 mi WSW 2.3 mph - N/A Rain Light Rain
4:00 AM 47 °F 45 °F 90% 30.05 in - West 2.3 mph - -  
4:20 AM 46.4 °F 44.6 °F 93% 30.04 in 6.2 mi West 1.2 mph - N/A   Mostly Cloudy
4:50 AM 46.4 °F 44.6 °F 93% 30.01 in 6.2 mi WNW 1.2 mph - N/A   Mostly Cloudy
5:20 AM 46.4 °F 44.6 °F 93% 30.01 in 6.2 mi Calm Calm - N/A   Mostly Cloudy
5:50 AM 46.4 °F 44.6 °F 93% 30.01 in 6.2 mi Calm Calm - N/A   Mostly Cloudy
6:00 AM 47 °F 44 °F 87% 30.04 in - North 1.2 mph - -  
6:20 AM 46.4 °F 44.6 °F 93% 30.01 in 6.2 mi NW 1.2 mph - N/A   Mostly Cloudy
6:50 AM 46.4 °F 44.6 °F 93% 30.01 in 6.2 mi NW 1.2 mph - N/A   Mostly Cloudy
7:00 AM 46 °F 44 °F 89% 30.04 in - NW 1.2 mph - -  
7:20 AM 46.4 °F 44.6 °F 93% 30.01 in 6.2 mi Calm Calm - N/A   Mostly Cloudy
7:50 AM 46.4 °F 44.6 °F 93% 30.01 in 6.2 mi Calm Calm - N/A   Mostly Cloudy
8:00 AM 47 °F 44 °F 85% 30.04 in 14 mi NNE 1.2 mph - -   Partly Cloudy
8:20 AM 48.2 °F 44.6 °F 87% 30.01 in 6.2 mi Calm Calm - N/A   Mostly Cloudy
8:50 AM 48.2 °F 44.6 °F 87% 30.01 in 6.2 mi Calm Calm - N/A   Mostly Cloudy
9:00 AM 49 °F 42 °F 70% 30.04 in - North 2.3 mph - -  
9:20 AM 48.2 °F 42.8 °F 82% 30.04 in 6.2 mi Variable 2.3 mph - N/A   Mostly Cloudy
9:50 AM 50.0 °F 42.8 °F 76% 30.04 in 6.2 mi Variable 2.3 mph - N/A   Mostly Cloudy
10:00 AM 49 °F 42 °F 69% 30.04 in - ENE 3.5 mph - -  
10:20 AM 51.8 °F 42.8 °F 71% 30.04 in 6.2 mi Variable 2.3 mph - N/A   Mostly Cloudy
10:50 AM 51.8 °F 42.8 °F 71% 30.01 in 6.2 mi ENE 3.5 mph - N/A   Mostly Cloudy
11:20 AM 51.8 °F 41.0 °F 67% 30.04 in 6.2 mi NE 8.1 mph - N/A   Mostly Cloudy
11:50 AM 53.6 °F 41.0 °F 62% 30.01 in 6.2 mi ENE 10.4 mph - N/A   Mostly Cloudy
12:00 PM 53 °F 38 °F 47% 30.03 in - NE 11.5 mph - -  
12:20 PM 53.6 °F 39.2 °F 58% 30.01 in 6.2 mi NE 10.4 mph - N/A   Mostly Cloudy
12:50 PM 53.6 °F 39.2 °F 58% 30.01 in 6.2 mi NE 11.5 mph - N/A   Mostly Cloudy
1:00 PM 55 °F 40 °F 46% 30.02 in - NE 11.5 mph - -  
1:20 PM 55.4 °F 41.0 °F 58% 30.01 in 6.2 mi NE 12.7 mph - N/A   Mostly Cloudy
1:50 PM 53.6 °F 41.0 °F 62% 30.01 in 6.2 mi NE 10.4 mph - N/A   Mostly Cloudy
2:00 PM 54 °F 40 °F 48% 30.02 in 19 mi NE 10.4 mph - -   Mostly Cloudy
2:20 PM 55.4 °F 41.0 °F 58% 30.01 in 6.2 mi NNE 8.1 mph - N/A   Mostly Cloudy
2:50 PM 55.4 °F 41.0 °F 58% 30.01 in 6.2 mi NNE 6.9 mph - N/A   Mostly Cloudy
3:00 PM 55 °F 40 °F 45% 30.02 in - NNE 8.1 mph - -  
3:20 PM 55.4 °F 39.2 °F 54% 30.01 in 6.2 mi North 4.6 mph - N/A   Mostly Cloudy
3:50 PM 55.4 °F 41.0 °F 58% 30.01 in 6.2 mi NNE 6.9 mph - N/A   Mostly Cloudy
4:00 PM 56 °F 38 °F 39% 30.01 in - NNE 9.2 mph - -  
4:20 PM 55.4 °F 39.2 °F 54% 30.01 in 6.2 mi NNE 6.9 mph - N/A   Mostly Cloudy
4:50 PM 55.4 °F 41.0 °F 58% 30.01 in 6.2 mi NW 5.8 mph - N/A   Mostly Cloudy
5:20 PM 53.6 °F 41.0 °F 62% 30.01 in 6.2 mi North 5.8 mph - N/A   Mostly Cloudy
5:50 PM 53.6 °F 42.8 °F 67% 30.01 in 6.2 mi NNE 6.9 mph - N/A   Mostly Cloudy
6:00 PM 54 °F 41 °F 50% 30.03 in - NNE 8.1 mph - -  
6:20 PM 53.6 °F 41.0 °F 62% 30.04 in 6.2 mi NE 5.8 mph - N/A   Mostly Cloudy
6:50 PM 53.6 °F 41.0 °F 62% 30.04 in 6.2 mi ENE 6.9 mph - N/A   Mostly Cloudy
7:00 PM 53 °F 40 °F 51% 30.05 in - NE 8.1 mph - -  
7:20 PM 53.6 °F 41.0 °F 62% 30.04 in 6.2 mi NE 5.8 mph - N/A   Mostly Cloudy
7:50 PM 53.6 °F 42.8 °F 67% 30.04 in 6.2 mi Variable 3.5 mph - N/A   Mostly Cloudy
8:00 PM 53 °F 40 °F 52% 30.06 in 17 mi NNE 4.6 mph - -   Overcast
8:20 PM 51.8 °F 41.0 °F 67% 30.06 in 6.2 mi NE 5.8 mph - N/A   Mostly Cloudy
8:50 PM 51.8 °F 41.0 °F 67% 30.06 in 6.2 mi NNE 4.6 mph - N/A   Mostly Cloudy
9:00 PM 52 °F 41 °F 56% 30.08 in - NNE 5.8 mph - -  
9:20 PM 51.8 °F 41.0 °F 67% 30.06 in 6.2 mi NE 4.6 mph - N/A   Mostly Cloudy
9:50 PM 51.8 °F 42.8 °F 71% 30.06 in 6.2 mi Variable 3.5 mph - N/A   Mostly Cloudy
10:00 PM 52 °F 42 °F 58% 30.10 in - ESE 3.5 mph - -  
10:20 PM 51.8 °F 44.6 °F 76% 30.09 in 6.2 mi East 4.6 mph - N/A   Mostly Cloudy
10:50 PM 50.0 °F 42.8 °F 76% 30.09 in 6.2 mi ENE 3.5 mph - N/A   Mostly Cloudy
11:20 PM 50.0 °F 42.8 °F 76% 30.09 in 6.2 mi Calm Calm - N/A   Mostly Cloudy
11:50 PM 48.2 °F 42.8 °F 82% 30.09 in 6.2 mi Calm Calm - N/A   Scattered Clouds